SCP
0 0 0 0 0 0 0 0 0 0 0 0 0 1 1 1 1 1 1 1 1 2 3 3 3 3 2 1 2 2 3 3 2 3 5 5 4 3 3 3 3 2 2 2
0 0 0 0 0 0 0 0 0 0 0 0 0 1 1 1 1 1 1 2 2 3 4 4 4 4 3 2 2 2 3 3 4 5 6 5 4 3 3 3 3 2 2 2
0 0 0 0 0 0 0 0 0 0 0 0 1 1 1 2 2 2 2 2 3 3 5 5 6 6 5 3 2 3 3 4 6 7 6 5 4 4 4 4 3 3 2 2
0 0 0 0 0 0 0 0 0 0 0 0 1 1 1 2 2 2 2 3 3 3 5 6 6 6 5 3 3 3 4 5 5 6 5 5 5 5 5 5 3 3 2 2
0 0 0 0 0 0 0 0 0 0 0 0 0 1 1 2 2 3 3 3 3 3 4 4 4 4 3 3 3 4 5 6 5 4 4 5 5 5 5 5 3 2 2 2
0 0 0 0 0 0 0 0 0 0 0 0 0 0 1 2 3 4 4 3 3 3 3 3 3 3 3 3 3 4 6 7 5 4 4 5 5 6 6 4 3 2 2 2
0 0 0 0 0 0 0 0 0 0 0 0 0 1 1 2 3 4 4 3 2 2 2 3 3 3 3 3 4 5 6 7 6 4 3 4 4 5 5 4 3 2 2 2
0 0 0 0 0 0 0 0 0 0 0 0 0 1 1 2 3 3 3 2 2 2 2 2 3 3 3 4 4 5 6 7 5 4 4 3 4 4 4 3 3 3 3 3
0 0 0 0 0 0 0 0 0 0 0 0 0 1 1 2 2 2 2 2 3 2 2 2 2 2 3 4 4 5 6 6 5 4 4 3 3 3 3 3 3 3 4 4
0 0 0 0 0 0 0 0 0 0 0 0 0 1 1 2 2 2 2 3 3 3 2 2 2 2 2 3 3 4 5 5 5 4 4 3 3 3 3 3 3 4 5 5
0 0 0 0 0 0 0 0 0 0 0 0 0 0 1 2 2 2 2 3 3 2 2 3 3 3 3 4 4 4 5 5 4 4 3 3 4 4 3 3 4 4 5 6
0 0 0 0 0 0 0 0 0 0 0 0 0 0 1 2 3 3 3 3 3 3 3 3 4 4 4 4 5 5 5 5 4 4 3 4 5 5 5 5 6 6 7 7
0 0 0 0 0 0 0 0 0 0 0 0 0 1 2 3 3 3 3 3 3 3 3 4 4 4 4 3 3 3 4 4 4 3 3 4 5 7 7 8 9 10 9 9
0 0 0 0 0 0 0 0 0 0 0 0 0 1 2 3 3 3 3 3 3 3 4 4 4 3 3 2 2 2 3 4 4 4 4 4 5 6 8 10 11 12 11 9
0 0 0 0 0 0 0 0 0 0 0 0 0 1 2 2 3 2 2 3 3 4 4 4 3 3 3 3 3 2 3 4 5 4 4 4 5 5 7 10 12 12 9 7
0 0 0 0 0 0 0 0 0 0 0 0 1 1 2 2 2 2 2 3 4 4 4 4 4 4 4 4 3 3 3 4 5 4 4 4 4 4 6 9 10 9 6 4
0 0 0 0 0 0 0 0 0 0 0 0 1 1 1 1 1 1 2 2 3 4 4 4 5 5 5 4 4 3 3 4 4 4 3 3 3 3 4 6 6 6 4 4
1 1 1 0 0 0 0 0 0 0 0 0 1 1 1 1 1 1 1 2 3 3 4 5 5 5 5 5 4 3 3 3 4 3 3 3 3 3 3 4 4 4 4 5
1 1 1 1 0 0 0 0 0 0 1 1 1 1 1 1 1 2 2 2 3 4 5 5 5 4 4 4 4 4 3 3 3 3 3 3 3 3 3 3 3 4 5 5
1 1 1 1 1 1 1 1 0 0 1 1 2 1 1 1 2 2 3 4 4 6 6 5 5 5 4 4 4 4 3 3 3 3 3 3 3 4 4 4 4 4 4 4
1 1 1 1 1 1 1 1 1 1 1 2 2 2 2 2 2 3 3 4 5 6 6 5 5 5 5 5 5 5 4 3 3 3 4 4 4 4 4 4 4 4 4 3
1 1 1 1 1 1 1 1 1 1 2 2 2 3 3 3 3 2 2 3 4 5 5 4 5 5 5 5 5 5 4 3 3 3 4 4 4 4 4 5 4 3 3 3
1 1 1 1 1 1 1 1 1 1 2 2 2 4 4 3 2 2 2 3 3 3 4 4 4 4 4 5 5 4 3 3 3 3 4 4 4 5 6 5 4 3 3 3
2 2 2 2 1 1 1 1 1 1 2 2 2 4 5 4 2 2 3 3 3 3 4 4 4 4 4 5 6 4 3 3 4 5 5 4 5 7 7 5 4 4 4 4
3 3 4 3 2 2 1 1 1 1 2 2 3 4 4 4 3 3 3 4 4 4 4 4 4 4 5 5 5 4 3 4 6 7 6 6 6 7 6 4 3 3 4 3
3 4 5 4 2 2 1 1 1 1 1 2 3 3 3 4 4 4 4 5 5 4 4 4 4 5 5 5 4 4 4 5 7 8 7 7 6 6 4 3 3 3 3 3
Wind_Speed
5 7 4 2 3 5 4 4 2 2 1 2 2 2 3 4 4 4 4 5 4 4 4 4 3 4 4 3 3 3 3 3 2 1 1 1 0 0 1 1 2 1 1 1
8 7 3 3 4 6 5 4 1 2 2 2 2 2 3 4 3 3 4 4 5 5 5 4 4 4 4 4 3 4 3 3 2 1 1 1 0 0 1 1 2 2 1 1
9 2 1 4 5 6 5 4 3 1 2 4 4 4 4 5 4 4 3 4 5 5 5 6 5 4 4 4 4 3 3 3 2 1 1 1 1 1 1 1 1 2 2 1
7 3 4 6 5 6 3 1 3 4 6 3 5 3 4 6 5 5 5 4 5 5 5 6 6 5 4 4 4 4 3 2 2 2 1 1 0 0 1 1 1 1 1 1
5 4 5 6 3 5 3 1 4 6 7 5 4 5 3 5 4 4 5 5 4 5 5 5 5 5 4 4 4 4 3 2 2 2 2 2 1 0 0 0 1 0 1 1
7 4 5 4 2 2 2 4 5 7 7 6 3 6 1 3 1 2 4 4 5 5 6 6 5 5 4 5 4 4 4 3 3 2 1 1 1 1 1 1 0 1 0 0
7 7 5 4 5 6 7 7 5 6 5 2 1 4 2 4 2 2 3 4 5 6 6 6 6 5 5 5 4 4 4 3 3 2 2 1 1 1 1 1 0 1 1 0
7 7 6 4 5 5 6 8 7 6 5 2 3 3 4 4 3 3 3 4 6 6 6 6 6 5 5 5 5 4 4 3 3 2 2 1 1 1 0 1 2 1 1 1
5 4 4 2 2 5 5 6 7 9 7 6 2 2 5 5 4 4 4 5 6 6 6 6 6 5 5 5 4 4 4 3 2 2 2 2 1 0 1 1 1 1 2 1
6 5 4 4 5 3 6 5 5 7 6 6 3 3 1 4 4 5 5 5 6 6 5 5 5 5 4 5 5 4 4 3 3 2 2 2 1 1 0 1 1 2 2 2
8 8 6 7 6 4 5 6 5 6 6 8 6 2 4 2 4 4 5 5 5 5 5 4 4 4 4 5 5 5 4 3 3 2 2 1 1 1 0 0 1 1 1 2
6 7 6 5 3 3 6 6 6 6 5 7 8 1 5 2 3 5 5 5 5 5 5 5 4 4 4 4 4 4 3 3 3 2 2 2 2 1 0 0 0 1 1 1
4 7 7 7 8 8 6 5 7 8 7 7 8 1 5 4 4 4 5 5 5 5 5 5 4 4 4 4 3 3 3 3 2 3 3 2 2 1 1 1 1 0 0 1
5 8 9 9 6 3 6 7 8 9 8 8 7 5 2 3 4 4 5 5 5 5 5 5 4 4 3 3 3 3 3 3 3 3 3 2 2 1 1 1 1 1 1 0
6 9 9 9 7 8 9 8 8 9 9 10 7 6 3 2 2 3 4 5 5 5 4 4 4 3 3 3 3 3 3 2 2 2 2 2 1 1 1 1 1 1 1 1
5 7 8 10 9 9 11 10 10 10 10 9 9 6 1 1 2 3 4 5 5 5 4 4 4 4 3 3 2 2 3 2 2 1 1 1 1 1 1 1 1 1 1 1
6 7 9 10 8 10 12 9 9 9 8 9 8 3 1 1 2 2 4 5 5 5 5 4 4 3 3 3 3 2 2 2 2 2 1 1 1 0 0 1 1 1 1 1
7 7 7 9 8 13 4 1 5 7 6 6 4 1 2 2 2 2 3 4 4 4 4 4 3 3 2 2 3 2 2 3 2 2 1 1 1 0 0 0 0 1 1 1
7 7 7 8 11 11 5 2 3 5 4 2 2 2 2 3 4 3 3 3 3 3 3 3 2 2 2 2 2 3 2 2 2 2 1 0 0 0 0 0 1 1 1 1
7 8 9 9 11 10 1 2 1 6 6 1 1 2 3 3 5 2 3 2 2 3 3 2 2 2 2 2 3 3 3 2 2 1 1 1 1 0 1 1 1 1 1 1
8 8 10 11 11 6 3 1 3 7 2 3 0 0 2 1 3 3 2 2 2 2 3 3 3 2 2 2 3 3 3 2 2 1 1 1 1 1 1 0 0 1 1 1
8 8 9 9 11 4 4 1 2 4 4 2 1 1 1 1 2 3 3 2 2 2 3 3 3 2 2 2 3 2 2 1 1 2 2 1 1 1 0 0 1 1 1 1
6 5 5 4 2 5 2 2 3 2 1 1 1 1 1 1 2 2 2 1 2 2 3 3 2 2 2 2 3 2 2 2 2 2 2 2 1 1 1 1 1 1 2 2
3 2 4 4 2 0 1 2 2 2 2 2 1 1 0 1 1 1 1 1 1 2 3 2 2 2 2 2 2 3 2 2 3 3 2 2 2 1 1 1 1 1 2 2
2 3 5 5 3 2 2 0 2 2 1 1 1 1 1 0 1 1 1 1 1 2 2 2 2 2 1 2 2 3 3 3 3 3 2 2 2 1 1 1 1 1 2 2
5 5 6 3 1 3 2 1 1 0 1 1 1 1 1 0 0 1 1 1 1 2 2 2 2 2 1 1 2 2 3 3 3 2 2 1 1 1 1 1 0 2 1 1
Wind_Direction
214 239 246 273 279 302 297 293 323 52 99 242 223 206 167 167 188 188 181 172 165 149 130 127 131 129 129 130 131 134 136 134 157 167 207 182 111 47 51 57 45 29 9 13
221 227 268 286 246 251 255 264 269 125 127 252 231 222 172 171 187 197 189 176 171 154 138 135 141 143 139 134 137 146 157 154 178 173 209 222 304 339 63 41 54 26 18 355
246 285 250 239 235 244 250 271 280 283 193 205 233 203 176 164 175 176 185 182 171 164 160 155 156 155 150 148 151 149 156 160 183 190 197 181 174 206 143 90 76 36 18 29
243 240 249 248 246 261 258 302 263 244 249 226 256 267 159 166 172 177 183 180 176 169 166 163 161 161 161 158 149 142 143 154 167 188 206 215 260 348 19 2 65 74 35 15
226 228 248 255 263 267 315 309 250 250 260 262 233 268 134 165 184 176 184 180 175 172 166 162 160 157 160 154 149 145 145 142 150 187 193 225 248 275 3 68 90 358 64 19
250 238 255 269 265 241 196 216 220 232 247 252 256 271 209 139 164 153 160 165 172 169 165 162 156 152 156 154 155 152 149 151 151 163 167 204 287 311 346 5 358 245 169 88
216 207 198 221 223 193 227 254 249 236 231 253 120 268 41 80 93 138 155 155 163 165 163 159 156 158 159 159 159 156 150 155 159 165 173 189 222 221 241 291 316 294 316 15
222 201 184 206 253 260 249 272 282 293 301 310 188 262 78 95 103 117 139 144 153 159 161 160 160 165 168 168 168 161 157 162 168 172 176 192 227 238 250 332 323 324 331 5
245 211 157 185 260 264 249 255 292 285 280 281 258 171 136 137 142 139 137 144 150 154 159 160 162 167 169 165 162 162 157 163 174 179 175 178 187 291 338 306 283 319 333 339
255 251 204 177 198 199 284 291 261 273 288 282 262 238 153 158 164 154 151 149 147 151 154 153 159 163 161 155 148 153 154 159 164 164 164 139 144 149 217 288 356 345 340 346
253 250 214 204 227 246 216 229 260 278 291 293 293 15 69 151 169 170 158 150 150 153 150 144 148 149 148 148 146 148 149 153 152 138 138 136 141 145 140 350 341 340 345 349
239 257 251 226 196 250 261 266 259 270 273 277 288 359 90 134 162 162 156 146 146 147 146 141 136 134 137 137 135 134 142 142 140 139 140 143 143 149 158 86 324 352 5 359
216 249 247 226 198 194 228 245 261 269 269 269 279 332 116 133 150 156 154 149 151 152 147 143 135 129 128 126 123 128 135 131 145 148 155 150 153 160 192 251 263 298 322 352
253 253 263 277 298 269 245 237 244 258 266 274 281 298 174 181 184 175 165 163 161 158 161 150 141 134 121 120 128 139 137 136 145 156 162 160 167 182 204 209 227 240 247 260
250 254 260 273 279 267 262 255 240 253 275 287 298 295 269 225 210 190 179 169 162 165 163 146 139 127 129 122 133 145 140 137 142 157 152 154 162 176 203 209 222 234 247 244
258 265 261 258 258 256 257 254 248 247 261 273 279 285 15 149 177 182 181 176 172 167 161 151 141 137 136 137 147 145 139 140 143 138 126 132 156 187 194 212 216 213 242 289
242 247 259 260 255 254 250 249 254 256 256 271 282 307 143 193 175 187 192 186 179 169 162 155 148 144 143 143 147 152 140 139 143 151 146 159 184 181 206 237 193 200 218 245
243 250 253 260 251 251 270 349 275 271 267 271 282 249 207 201 175 178 186 184 183 176 169 163 162 152 145 139 137 146 145 148 151 152 143 157 174 163 154 243 252 224 229 249
230 237 252 255 251 251 227 213 252 262 258 289 267 196 179 170 177 174 164 166 174 180 178 169 168 161 149 144 143 151 148 136 140 129 128 132 152 147 175 238 262 267 260 265
204 222 246 247 259 262 272 88 308 264 232 142 235 196 180 207 231 154 119 134 148 153 160 162 158 152 152 166 154 161 156 143 142 135 139 133 158 194 242 269 272 278 266 267
204 216 236 245 252 255 51 47 233 248 5 63 5 162 195 209 346 80 125 117 121 138 153 155 162 161 167 171 169 182 169 162 157 145 146 151 167 214 218 213 280 277 277 296
238 234 231 243 249 245 61 184 280 17 39 56 62 78 104 87 80 118 129 126 144 150 161 160 159 162 161 165 177 184 175 159 155 158 164 178 207 226 149 177 242 262 278 255
247 280 276 268 308 59 49 29 36 36 70 70 77 84 137 156 137 134 132 139 157 173 173 170 159 169 173 175 177 190 180 171 170 171 172 183 207 215 201 228 242 243 249 268
206 278 263 253 214 87 57 64 50 37 41 53 74 74 180 182 165 151 158 177 183 184 186 174 174 196 191 193 191 184 170 175 180 177 179 181 193 200 177 252 261 286 300 304
279 241 247 246 251 247 203 20 27 46 44 59 64 21 354 233 227 229 222 217 214 199 193 185 192 205 198 204 198 175 161 176 182 179 184 191 193 174 198 250 324 307 348 345
244 253 261 275 296 279 279 316 352 41 334 334 337 335 341 324 239 230 235 257 244 216 202 200 201 207 199 208 184 167 168 181 187 190 195 209 205 175 222 209 148 38 2 86